Weather History for Anoka County, MN

Change the Weather History Date:

Thursday, July 18, 2013

  Actual Average Record
Temperature  
Mean Temperature 86 °F -  
Max Temperature 93 °F 79 °F 93 °F (2001)
Min Temperature 78 °F 61 °F 51 °F (2000)
Cooling Degree Days 20    
Growing Degree Days 36 (Base 50)    
Moisture  
Dew Point 71 °F    
Average Humidity 65    
Maximum Humidity 79    
Minimum Humidity 44    
Precipitation  
Precipitation 0.00 in - - ()
Sea Level Pressure  
Sea Level Pressure 29.96 in    
Wind  
Wind Speed 8 mph (SSW)    
Max Wind Speed 23 mph    
Max Gust Speed 29 mph    
Visibility 10 miles    
Events      
Averages and records for this station are not official NWS values.
T = Trace of Precipitation, MM = Missing Value Source: NWS Daily Summary

Daily Weather History Graph

Daily Weather History Graph

Search for Another Location

Airport:

Trip Planner

Search our weather history database for the weather conditions in past years. The results will help you decide how hot, cold, wet, or windy it might be!

Date:

Astronomy

Jul. 18, 2013 Rise Set
Actual Time 5:43 AM CDT 8:54 PM CDT
Civil Twilight 5:07 AM CDT 9:30 PM CDT
Nautical Twilight 4:21 AM CDT 10:16 PM CDT
Astronomical Twilight 3:24 AM CDT 11:12 PM CDT
Moon 4:50 PM CDT (7/18) 1:36 AM CDT (7/18)
Length of Visible Light 16h 22m
Length of Day
15h 11m
Waxing Gibbous, 77% of the Moon is Illuminated
Jul 18
Waxing Gibbous
Jul 22
Full
Jul 29
Last Quarter
Aug 6
New
Aug 14
First Quarter

Hourly Weather History & Observations

Time (CDT) Temp. Heat Index Dew Point Humidity Pressure Visibility Wind Dir Wind Speed Gust Speed Precip Events Conditions
12:14 AM 80.6 °F 85.4 °F 73.4 °F 79% 30.11 in 10.0 mi South 3.5 mph - N/A   Clear
12:34 AM 78.8 °F - 71.6 °F 78% 30.11 in 10.0 mi South 4.6 mph - N/A   Clear
12:54 AM 78.8 °F - 71.6 °F 78% 30.11 in 10.0 mi South 4.6 mph - N/A   Clear
1:14 AM 80.6 °F 84.6 °F 71.6 °F 74% 30.11 in 10.0 mi South 3.5 mph - N/A   Clear
1:34 AM 78.8 °F - 71.6 °F 78% 30.10 in 10.0 mi South 4.6 mph - N/A   Clear
1:54 AM 78.8 °F - 71.6 °F 78% 30.09 in 10.0 mi South 5.8 mph - N/A   Clear
2:14 AM 78.8 °F - 71.6 °F 78% 30.10 in 10.0 mi South 5.8 mph - N/A   Clear
2:34 AM 80.6 °F 84.6 °F 71.6 °F 74% 30.09 in 10.0 mi SSW 5.8 mph - N/A   Clear
2:54 AM 80.6 °F 84.6 °F 71.6 °F 74% 30.09 in 10.0 mi South 6.9 mph - N/A   Clear
3:14 AM 80.6 °F 84.6 °F 71.6 °F 74% 30.09 in 10.0 mi SSW 6.9 mph - N/A   Clear
3:34 AM 80.6 °F 84.6 °F 71.6 °F 74% 30.09 in 10.0 mi SSW 5.8 mph - N/A   Clear
3:54 AM 80.6 °F 84.6 °F 71.6 °F 74% 30.08 in 10.0 mi SSW 5.8 mph - N/A   Clear
4:13 AM 78.8 °F - 71.6 °F 78% 30.07 in 10.0 mi SSW 4.6 mph - N/A   Clear
4:34 AM 78.8 °F - 71.6 °F 78% 30.07 in 10.0 mi South 5.8 mph - N/A   Clear
4:54 AM 78.8 °F - 71.6 °F 78% 30.06 in 10.0 mi South 6.9 mph - N/A   Clear
5:14 AM 78.8 °F - 71.6 °F 78% 30.06 in 10.0 mi SSW 5.8 mph - N/A   Clear
5:34 AM 78.8 °F - 71.6 °F 78% 30.06 in 10.0 mi South 6.9 mph - N/A   Clear
5:54 AM 78.8 °F - 71.6 °F 78% 30.05 in 10.0 mi South 8.1 mph - N/A   Clear
6:14 AM 78.8 °F - 71.6 °F 78% 30.05 in 10.0 mi SSW 8.1 mph - N/A   Clear
6:34 AM 78.8 °F - 71.6 °F 78% 30.05 in 10.0 mi SSW 6.9 mph - N/A   Clear
6:45 AM 80.6 °F 84.6 °F 71.6 °F 74% 30.05 in 10.0 mi SSW 6.9 mph - N/A   Clear
6:53 AM 80.6 °F 84.6 °F 71.6 °F 74% 30.04 in 10.0 mi SSW 8.1 mph - N/A   Clear
7:45 AM 82.4 °F 87.2 °F 71.6 °F 70% 30.03 in 10.0 mi SW 6.9 mph 17.3 mph N/A   Scattered Clouds
8:45 AM 84.2 °F 89.6 °F 71.6 °F 66% 30.01 in 10.0 mi SSW 9.2 mph - N/A   Scattered Clouds
9:45 AM 86.0 °F 91.8 °F 71.6 °F 62% 29.99 in 10.0 mi SW 15.0 mph 20.7 mph N/A   Scattered Clouds
10:45 AM 89.6 °F 96.2 °F 71.6 °F 55% 29.98 in 10.0 mi SW 10.4 mph 18.4 mph N/A   Scattered Clouds
12:45 PM 91.4 °F 96.8 °F 69.8 °F 49% 29.95 in 10.0 mi SW 17.3 mph 24.2 mph N/A   Scattered Clouds
1:45 PM 93.2 °F 98.8 °F 69.8 °F 46% 29.92 in 10.0 mi SW 15.0 mph 26.5 mph N/A   Scattered Clouds
2:45 PM 93.2 °F 98.8 °F 69.8 °F 46% 29.89 in 10.0 mi SSW 17.3 mph 26.5 mph N/A   Partly Cloudy
3:45 PM 93.2 °F 97.7 °F 68.0 °F 44% 29.87 in 10.0 mi SSW 23.0 mph 28.8 mph N/A   Partly Cloudy
4:45 PM 93.2 °F 97.7 °F 68.0 °F 44% 29.84 in 10.0 mi SSW 20.7 mph 27.6 mph N/A   Scattered Clouds
5:45 PM 93.2 °F 97.7 °F 68.0 °F 44% 29.82 in 10.0 mi SSW 20.7 mph - N/A   Scattered Clouds
6:50 PM 91.4 °F 95.4 °F 68.0 °F 46% 29.81 in 10.0 mi SSW 12.7 mph 26.5 mph N/A   Scattered Clouds
7:50 PM 91.4 °F 96.8 °F 69.8 °F 49% 29.78 in 10.0 mi SSW 11.5 mph 23.0 mph N/A   Clear
8:45 PM 89.6 °F 94.7 °F 69.8 °F 52% 29.78 in 10.0 mi SSW 11.5 mph 17.3 mph N/A   Clear
9:14 PM 89.6 °F 94.7 °F 69.8 °F 52% 29.78 in 10.0 mi SSW 12.7 mph 20.7 mph N/A   Clear
9:33 PM 87.8 °F 92.6 °F 69.8 °F 55% 29.78 in 10.0 mi SSW 11.5 mph 18.4 mph N/A   Clear
9:45 PM 87.8 °F 92.6 °F 69.8 °F 55% 29.78 in 10.0 mi SSW 11.5 mph - N/A   Clear
9:54 PM 87.8 °F 92.6 °F 69.8 °F 55% 29.78 in 10.0 mi SSW 9.2 mph 16.1 mph N/A   Clear
10:14 PM 87.8 °F 92.6 °F 69.8 °F 55% 29.78 in 10.0 mi SSW 10.4 mph - N/A   Clear
10:34 PM 87.8 °F 92.6 °F 69.8 °F 55% 29.77 in 10.0 mi SSW 10.4 mph 17.3 mph N/A   Clear
10:54 PM 87.8 °F 92.6 °F 69.8 °F 55% 29.77 in 10.0 mi SSW 9.2 mph 18.4 mph N/A   Clear
11:14 PM 86.0 °F 90.4 °F 69.8 °F 58% 29.77 in 10.0 mi SSW 11.5 mph 17.3 mph N/A   Clear
11:34 PM 86.0 °F 90.4 °F 69.8 °F 58% 29.76 in 10.0 mi SSW 13.8 mph 18.4 mph N/A   Clear
11:54 PM 86.0 °F 90.4 °F 69.8 °F 58% 29.76 in 10.0 mi SSW 11.5 mph 18.4 mph N/A   Clear